User: anonymous   Login
Location: S�tio Afonso Gruber
(26.1760°S, 49.5250°W)
Time: 15:56:10
(UTC+00:00)
Language:

Intelsat 5-3 Rocket - Orbit

View from above orbital plane
View from above orbital plane
View from above satellite
View from above satellite

Ground track
Ground track

The orbit data is extracted from the following two-line orbital elements,

1 13007U 81119B   20225.14628685  .00006385  00000-0  30581-3 0  9994
2 13007  23.5470 245.1586 3048351 268.3288  57.1121  9.25265804982014
Epoch (UTC): 12 August 2020 03:30:39
Eccentricity: 0.3048351
inclination: 23.5470°
perigee height: 284 km
apogee height: 6127 km
right ascension of ascending node: 245.1586°
argument of perigee: 268.3288°
revolutions per day: 9.25265804
mean anomaly at epoch: 57.1121°
orbit number at epoch: 98201

The dashed part of the orbit path shows where the satellite is in the earth's shadow,  

DLR